GALAXY 18 (G-18)

Last updated on Thu Nov 21 2024 00:02:41 GMT+0000 (Coordinated Universal Time)

1 32951U 08024A 24325.38891567 .00000026 00000+0 00000+0 0 9993 2 32951 0.0149 36.7714 0003337 205.2845 194.8438 1.00275184 40094
UTC large
Height (km)
Speed (km/s)
/
Latitude / Longitude
Inclination (degrees)
Orbital Period (minutes)
Azimuth
Elevation
Range (km)
Doppler Factor

Next 0 passes for location: London (51.5072 / 0.1276)

Sorry there are no passes over London.